Regional Weather Roundup
Issued by NWS Charleston, SC

Current Version | Previous Version | Graphics & Text | Print | Product List | Glossary On
Versions: 1 2 3 4 5 6 7 8 9 10 11 12 13 14 15 16 17 18 19 20 21 22 23 24 25 26 27 28 29 30 31 32 33 34 35 36 37 38 39 40 41 42 43 44 45 46 47 48 49 50
000
ASUS42 KCHS 060127
RWRCHS

REGIONAL WEATHER ROUNDUP
NATIONAL WEATHER SERVICE CHARLESTON SC
900 PM EDT TUE MAY 05 2015

NOTE: "FAIR" INDICATES FEW OR NO CLOUDS BELOW 12,000 FEET WITH NO
SIGNIFICANT WEATHER AND/OR OBSTRUCTIONS TO VISIBILITY.

NOT ALL STATIONS ARE QUALITY CONTROLLED BY THE NATIONAL
WEATHER SERVICE. USE DATA WITH CAUTION...ESPECIALLY
DEWPOINT OBSERVATIONS.

SCZ027-030-031-034>040-042>050-060200-
...SOUTHEAST SOUTH CAROLINA...

CITY           SKY/WX    TMP DP  RH WIND       PRES   REMARKS
N CHARLESTON   MOCLDY    69  59  70 E7        30.25S
WATERFRONT PRK   N/A     70 N/A N/A NE9         N/A
MOUNT PLEASANT FAIR      64  63  94 MISG      30.25S
PINOPOLIS      NOT AVBL
MONCKS CORNER  FAIR      68  57  68 CALM      30.25S
SUMMERVILLE    FAIR      70  59  68 E3        30.26S
BEAUFORT MCAS  CLOUDY    70  59  68 E9        30.24S
BEAUFORT ARPT  FAIR      70  63  78 CALM      30.23S
HILTON HEAD IS CLOUDY    72  63  73 NE6       30.24S
WALTERBORO     CLOUDY    66  57  72 E3        30.25S
ALLENDALE      FAIR      72  54  53 CALM      30.22S

...SOUTHERN MIDLANDS AND PEE DEE...

CITY           SKY/WX    TMP DP  RH WIND       PRES   REMARKS
GEORGETOWN     NOT AVBL
KINGSTREE      NOT AVBL
ORANGEBURG     MOCLDY    71  50  47 CALM      30.24R
BARNWELL       FAIR      70  55  60 E3        30.24S
AIKEN          FAIR      68  48  49 E5        30.27S
MANNING        FAIR      63  50  63 CALM      30.26R
COLUMBIA       PTCLDY    73  53  49 SE7       30.23R
SUMTER         PTCLDY    71  50  48 S3        30.24R
FLORENCE       MOCLDY    70  54  56 SE6       30.26R
MYRTLE BEACH   NOT AVBL
N MYRTLE BEACH MOCLDY    67  60  78 E5        30.26S

$$

GAZ063-065-086>088-099>101-113>116-118-119-134>141-150-060200-
...SOUTHEAST GEORGIA...

CITY           SKY/WX    TMP DP  RH WIND       PRES   REMARKS
SAVANNAH ARPT  CLOUDY    70  57  63 E8        30.23S
HUNTER AAF     CLOUDY    71  61  71 E8        30.20S
FORT STEWART   CLOUDY    69  59  69 E5        30.20S
STATESBORO       N/A     71  57  62 SE5       30.23R
SYLVANIA       MOCLDY    70  57  65 SE3       30.24R
CLAXTON        FAIR      68  59  73 E5        30.22S

...CSRA...CENTRAL AND FAR SOUTHEAST GEORGIA...

CITY           SKY/WX    TMP DP  RH WIND       PRES   REMARKS
THOMSON        CLEAR     66  60  79 CALM      30.27R
AUGUSTA-BUSH   CLEAR     65  55  70 CALM      30.22R
AUGUSTA-DANIEL CLEAR     75  49  39 E5        30.23R
SWAINSBORO     FAIR      72  45  37 CALM      30.22R
VIDALIA        MOCLDY    70  55  60 SE3       30.22R
EASTMAN        FAIR      71  58  63 E3        30.23R
HAZLEHURST     FAIR      73  58  60 E8        30.20R
ALMA           MOCLDY    71  57  61 E10       30.20R
WAYCROSS       MOCLDY    73  63  72 E9        30.20R
JESUP          FAIR      70  63  78 E6        30.22R
BAXLEY         FAIR      72  59  64 E3        30.21R
BRUNSWICK      CLOUDY    70  63  78 NE8       30.21S
SAINT SIMONS   CLOUDY    70  64  81 NE15      30.20S

$$

SCZ027-028-034-036>038-045-046-048>050-GAZ119-141-060200-
...LAKE AND SUPPLEMENTAL COASTAL OBSERVATIONS...

STATION/POSITION TIME  TEMP    WIND        PRES    WAVE   SWELL
                       AIR SEA DIR/SP/G            HT/PER HT/PER/DIR
                 (UTC) (F)     (DEG/KT/KT) (MB)    (FT/S) (FT/S/D)
UPR LAKE MARION  NOT AVBL
WINYAH BAY       0000   70      90/  7     1024.0
LAKE MURRAY      0000   77     140/  5/  7 1022.7R
ACE BASIN NERRS  NOT AVBL
FORT PULASKI     0012   71 72   60/ 17/ 19 1023.8F
SAPELO ISLAND    0100   70      60/ 10     1023.0S

$$

ANZ835-935-AMZ111-154-330-350-352-354-370-450-454-472-060200-
...C-MAN AND BUOY OBSERVATIONS...

STATION/POSITION TIME  TEMP    WIND        PRES    WAVE   SWELL
                       AIR SEA DIR/SP/G            HT/PER HT/PER/DIR
                 (UTC) (F)     (DEG/KT/KT) (MB)    (FT/S) (FT/S/D)
BUOY 41004       0050   73 74   80/ 14/ 17 1023.1F   4/ 7   3/ 7
BUOY 41008       0050   69 70   50/ 16/ 19 1022.5F   5/ 6   2/ 90/10
FOLLY BEACH CMAN 0100   70      60/ 11/ 13 1024.1S
CAPERS NEARSHORE 0008   71      70/ 12/ 16 1024.2R
FRIPP NEARSHORE  0000   71      80/ 14/ 17 1022.8S


STATION/POSITION TIME  TEMP    WIND        PRES    WAVE   SWELL
                       AIR SEA DIR/SP/G            HT/PER HT/PER/DIR
                 (UTC) (F)     (DEG/KT/KT) (MB)    (FT/S) (FT/S/D)
5E ST. MARYS GA  0021      72                N/A     5/ 5
FRYING PAN BUOY  0050   73 72  110/ 10/ 12 1025.4F   3/ 6   3/130/ 6
BUOY 41025       0050   71 76  160/ 14/ 17 1025.9S   3/11   2/ 40/11
CAPE LOOKOUT NC  0100   68     150/  5/  5 1025.6R
BUOY 41002       0050   70 70  100/ 17/ 21 1024.9R   6/ 7   2/ 90/ 9
BUOY 41010       0020   75 78   70/ 17/ 21 1018.8F
ST AUGUSTINE FL  0100   71 73   30/ 14/ 15 1021.5S


$$


USA.gov is the U.S. government's official web portal to all federal, state and local government web resources and services.